• In Austria
  • List of Countries
  • For 7 days
  • Water Temperature
  • Satellite Maps
  • Weather Map
  • News
  • Weather Widgets
  • user-avatar
    Login

    Hourly Weather Kaputy

    Today, 23 September, Sunday

    Time Temperature Precipitation Wind Pressure Humidity
    00:00 +10°C° 0 mm 3 mps 754 mmHg 67%
    01:00 +10°C° 0 mm 3 mps 754 mmHg 68%
    02:00 +10°C° 0 mm 3 mps 754 mmHg 69%
    03:00 +10°C° 0 mm 3 mps 753 mmHg 71%
    04:00 +9°C° 0 mm 3 mps 753 mmHg 72%
    05:00 +10°C° 0 mm 3 mps 753 mmHg 70%
    06:00 +11°C° 0 mm 4 mps 753 mmHg 69%
    07:00 +12°C° 0 mm 4 mps 753 mmHg 67%
    08:00 +12°C° 0.1 mm 4 mps 753 mmHg 68%
    09:00 +13°C° 0.1 mm 5 mps 753 mmHg 69%
    10:00 +13°C° 0.1 mm 5 mps 753 mmHg 70%
    11:00 +13°C° 0.1 mm 5 mps 752 mmHg 68%
    12:00 +14°C° 0.1 mm 5 mps 752 mmHg 66%
    13:00 +14°C° 0.1 mm 5 mps 752 mmHg 65%
    14:00 +14°C° 0.1 mm 4 mps 751 mmHg 66%
    15:00 +14°C° 0.1 mm 4 mps 751 mmHg 67%
    16:00 +14°C° 0.1 mm 3 mps 750 mmHg 68%
    17:00 +13°C° 0.4 mm 3 mps 749 mmHg 74%
    18:00 +12°C° 0.4 mm 3 mps 749 mmHg 79%
    19:00 +11°C° 0.4 mm 3 mps 748 mmHg 85%
    20:00 +11°C° 3.9 mm 3 mps 747 mmHg 88%
    21:00 +11°C° 3.9 mm 3 mps 746 mmHg 91%
    22:00 +10°C° 3.9 mm 3 mps 745 mmHg 94%
    23:00 +10°C° 1.3 mm 4 mps 744 mmHg 93%

    Tomorrow, 24 September, Monday

    Time Temperature Precipitation Wind Pressure Humidity
    00:00 +10°C° 1.3 mm 4 mps 744 mmHg 93%
    01:00 +9°C° 1.3 mm 5 mps 743 mmHg 92%
    02:00 +9°C° 0.9 mm 6 mps 744 mmHg 90%
    03:00 +9°C° 0.9 mm 6 mps 745 mmHg 89%
    04:00 +9°C° 0.9 mm 7 mps 745 mmHg 87%
    05:00 +9°C° 0.2 mm 7 mps 747 mmHg 86%
    06:00 +9°C° 0.2 mm 7 mps 748 mmHg 84%
    07:00 +9°C° 0.2 mm 7 mps 749 mmHg 83%
    08:00 +10°C° 0.1 mm 8 mps 750 mmHg 77%
    09:00 +11°C° 0.1 mm 8 mps 750 mmHg 71%
    10:00 +11°C° 0.1 mm 9 mps 751 mmHg 65%
    11:00 +11°C° 0.3 mm 9 mps 751 mmHg 62%
    12:00 +12°C° 0.3 mm 10 mps 751 mmHg 60%
    13:00 +12°C° 0.3 mm 10 mps 751 mmHg 57%
    14:00 +11°C° 0.2 mm 10 mps 752 mmHg 58%
    15:00 +11°C° 0.2 mm 10 mps 752 mmHg 58%
    16:00 +11°C° 0.2 mm 9 mps 752 mmHg 59%
    17:00 +10°C° 0.2 mm 9 mps 753 mmHg 65%
    18:00 +9°C° 0.2 mm 8 mps 753 mmHg 71%
    19:00 +8°C° 0.2 mm 7 mps 754 mmHg 76%
    20:00 +8°C° 0.3 mm 7 mps 755 mmHg 77%
    21:00 +7°C° 0.3 mm 6 mps 755 mmHg 78%
    22:00 +7°C° 0.3 mm 6 mps 756 mmHg 78%
    23:00 +7°C° 0 mm 6 mps 757 mmHg 79%

    Day after tomorrow, 25 September, Tuesday

    Time Temperature Precipitation Wind Pressure Humidity
    00:00 +6°C° 0 mm 5 mps 758 mmHg 79%
    01:00 +6°C° 0 mm 5 mps 759 mmHg 79%
    02:00 +5°C° 0 mm 5 mps 759 mmHg 80%
    03:00 +5°C° 0 mm 5 mps 760 mmHg 80%
    04:00 +5°C° 0 mm 5 mps 760 mmHg 80%
    05:00 +4°C° 0 mm 6 mps 761 mmHg 76%
    06:00 +4°C° 0 mm 6 mps 762 mmHg 72%
    07:00 +5°C° 0 mm 6 mps 762 mmHg 68%
    08:00 +6°C° 0 mm 7 mps 763 mmHg 62%
    09:00 +8°C° 0 mm 7 mps 763 mmHg 55%
    10:00 +10°C° 0 mm 8 mps 764 mmHg 49%
    11:00 +10°C° 0.1 mm 8 mps 764 mmHg 48%
    12:00 +10°C° 0.1 mm 8 mps 764 mmHg 46%
    13:00 +11°C° 0.1 mm 8 mps 764 mmHg 45%
    14:00 +11°C° 0 mm 7 mps 765 mmHg 46%
    15:00 +10°C° 0 mm 7 mps 765 mmHg 46%
    16:00 +10°C° 0 mm 6 mps 765 mmHg 47%
    17:00 +9°C° 0 mm 5 mps 766 mmHg 51%
    18:00 +8°C° 0 mm 4 mps 766 mmHg 55%
    19:00 +8°C° 0 mm 3 mps 767 mmHg 59%
    20:00 +7°C° 0 mm 3 mps 767 mmHg 61%
    21:00 +5°C° 0 mm 3 mps 767 mmHg 63%
    22:00 +6°C° 0 mm 2 mps 768 mmHg 65%
    23:00 +6°C° 0 mm 2 mps 768 mmHg 64%

    26 September, Wednesday

    Time Temperature Precipitation Wind Pressure Humidity
    00:00 +5°C° 0 mm 2 mps 768 mmHg 63%
    01:00 +5°C° 0 mm 2 mps 768 mmHg 63%
    02:00 +5°C° 0 mm 2 mps 768 mmHg 63%
    03:00 +5°C° 0 mm 2 mps 768 mmHg 64%
    04:00 +3°C° 0 mm 3 mps 768 mmHg 64%
    05:00 +4°C° 0 mm 3 mps 768 mmHg 65%
    06:00 +5°C° 0 mm 3 mps 768 mmHg 65%
    07:00 +5°C° 0 mm 3 mps 768 mmHg 66%
    08:00 +7°C° 0 mm 4 mps 768 mmHg 61%
    09:00 +9°C° 0 mm 5 mps 768 mmHg 56%
    10:00 +12°C° 0 mm 5 mps 767 mmHg 51%
    11:00 +13°C° 0 mm 6 mps 767 mmHg 48%
    12:00 +13°C° 0 mm 6 mps 766 mmHg 46%
    13:00 +14°C° 0 mm 6 mps 766 mmHg 44%
    14:00 +13°C° 0 mm 6 mps 765 mmHg 46%
    15:00 +13°C° 0 mm 5 mps 765 mmHg 49%
    16:00 +12°C° 0 mm 4 mps 764 mmHg 52%
    17:00 +12°C° 0.1 mm 4 mps 764 mmHg 55%
    18:00 +11°C° 0.1 mm 4 mps 763 mmHg 59%
    19:00 +11°C° 0.1 mm 4 mps 763 mmHg 62%
    20:00 +10°C° 0.1 mm 5 mps 763 mmHg 63%
    21:00 +10°C° 0.1 mm 5 mps 762 mmHg 63%
    22:00 +10°C° 0.1 mm 5 mps 762 mmHg 64%
    23:00 +10°C° 0.2 mm 5 mps 761 mmHg 62%

    27 September, Thursday

    Time Temperature Precipitation Wind Pressure Humidity
    00:00 +10°C° 0.2 mm 5 mps 761 mmHg 61%
    01:00 +10°C° 0.2 mm 6 mps 761 mmHg 59%
    02:00 +10°C° 0 mm 6 mps 760 mmHg 59%
    03:00 +10°C° 0 mm 6 mps 760 mmHg 59%
    04:00 +9°C° 0 mm 6 mps 760 mmHg 58%
    05:00 +10°C° 0 mm 6 mps 759 mmHg 59%
    06:00 +10°C° 0 mm 6 mps 759 mmHg 60%
    07:00 +10°C° 0 mm 6 mps 759 mmHg 61%
    08:00 +11°C° 0 mm 6 mps 759 mmHg 62%
    09:00 +13°C° 0 mm 6 mps 759 mmHg 63%
    10:00 +12°C° 0 mm 7 mps 759 mmHg 63%
    11:00 +15°C° 0 mm 7 mps 759 mmHg 62%
    12:00 +16°C° 0 mm 7 mps 759 mmHg 62%
    13:00 +18°C° 0 mm 7 mps 759 mmHg 61%
    14:00 +19°C° 0 mm 6 mps 759 mmHg 62%
    15:00 +19°C° 0 mm 6 mps 759 mmHg 64%
    16:00 +19°C° 0 mm 6 mps 758 mmHg 66%
    17:00 +17°C° 0 mm 5 mps 759 mmHg 70%
    18:00 +17°C° 0 mm 4 mps 759 mmHg 73%
    19:00 +15°C° 0 mm 4 mps 759 mmHg 77%
    20:00 +15°C° 0 mm 4 mps 759 mmHg 79%
    21:00 +15°C° 0 mm 4 mps 759 mmHg 81%
    22:00 +15°C° 0 mm 4 mps 759 mmHg 83%
    23:00 +14°C° 0 mm 4 mps 758 mmHg 85%

    28 September, Friday

    Time Temperature Precipitation Wind Pressure Humidity
    00:00 +14°C° 0 mm 4 mps 758 mmHg 86%
    01:00 +13°C° 0 mm 4 mps 758 mmHg 88%
    02:00 +13°C° 0 mm 4 mps 757 mmHg 88%
    03:00 +13°C° 0 mm 4 mps 757 mmHg 87%
    04:00 +13°C° 0 mm 5 mps 757 mmHg 86%
    05:00 +13°C° 0 mm 5 mps 757 mmHg 83%
    06:00 +13°C° 0 mm 5 mps 756 mmHg 80%
    07:00 +13°C° 0 mm 5 mps 756 mmHg 76%
    08:00 +15°C° 0 mm 5 mps 756 mmHg 70%
    09:00 +17°C° 0 mm 5 mps 756 mmHg 65%
    10:00 +19°C° 0 mm 5 mps 756 mmHg 59%
    11:00 +20°C° 0 mm 4 mps 756 mmHg 57%
    12:00 +21°C° 0 mm 4 mps 755 mmHg 55%
    13:00 +22°C° 0 mm 4 mps 755 mmHg 53%
    14:00 +21°C° 0 mm 3 mps 754 mmHg 54%
    15:00 +21°C° 0 mm 3 mps 754 mmHg 56%
    16:00 +21°C° 0 mm 2 mps 754 mmHg 57%
    17:00 +19°C° 0 mm 2 mps 754 mmHg 62%
    18:00 +19°C° 0 mm 1 mps 754 mmHg 67%
    19:00 +16°C° 0 mm 1 mps 754 mmHg 72%
    20:00 +16°C° 0 mm 1 mps 754 mmHg 74%
    21:00 +15°C° 0 mm 1 mps 753 mmHg 77%
    22:00 +14°C° 0 mm 1 mps 753 mmHg 79%
    23:00 +14°C° 0 mm 1 mps 753 mmHg 80%
    Show more